When you browse on this site, cookies collect data to enhance your experience and personalize the content and advertising you see.
Visit our Privacy Policy to learn more. By continuing to use the site, you agree to this use of cookies and data.
  • In Austria
  • List of Countries
  • For 7 days
  • Water Temperature
  • Weather Map
  • News
  • Weather Widgets
  • user-avatar
    Login

    Hourly Weather Molango

    Today, 2 June, Tuesday

    Time Temperature Precipitation Wind Pressure Humidity
    00:00 +13°C° 0 mm 0 mps 611 mmHg 96%
    01:00 +13°C° 0 mm 0 mps 610 mmHg 96%
    02:00 +13°C° 0 mm 0 mps 609 mmHg 96%
    03:00 +14°C° 0 mm 1 mps 610 mmHg 95%
    04:00 +14°C° 0 mm 1 mps 610 mmHg 94%
    05:00 +12°C° 0 mm 0 mps 610 mmHg 93%
    06:00 +15°C° 0 mm 1 mps 611 mmHg 85%
    07:00 +18°C° 0 mm 1 mps 612 mmHg 77%
    08:00 +20°C° 0 mm 1 mps 612 mmHg 70%
    09:00 +21°C° 0 mm 1 mps 613 mmHg 65%
    10:00 +21°C° 0 mm 2 mps 613 mmHg 61%
    11:00 +23°C° 0 mm 2 mps 613 mmHg 56%
    12:00 +23°C° 0.3 mm 2 mps 612 mmHg 58%
    13:00 +22°C° 0.3 mm 3 mps 612 mmHg 59%
    14:00 +22°C° 0.3 mm 3 mps 611 mmHg 61%
    15:00 +21°C° 0.5 mm 2 mps 611 mmHg 67%
    16:00 +20°C° 0.5 mm 2 mps 611 mmHg 74%
    17:00 +19°C° 0.5 mm 2 mps 610 mmHg 81%
    18:00 +18°C° 0.3 mm 1 mps 610 mmHg 86%
    19:00 +16°C° 0.3 mm 1 mps 611 mmHg 91%
    20:00 +14°C° 0.3 mm 0 mps 611 mmHg 96%
    21:00 +14°C° 0.1 mm 0 mps 611 mmHg 96%
    22:00 +13°C° 0.1 mm 0 mps 611 mmHg 96%
    23:00 +13°C° 0.1 mm 0 mps 611 mmHg 96%

    Tomorrow, 3 June, Wednesday

    Time Temperature Precipitation Wind Pressure Humidity
    00:00 +14°C° 0 mm 1 mps 610 mmHg 96%
    01:00 +14°C° 0 mm 1 mps 610 mmHg 96%
    02:00 +14°C° 0 mm 1 mps 609 mmHg 95%
    03:00 +14°C° 0 mm 1 mps 609 mmHg 95%
    04:00 +14°C° 0 mm 1 mps 609 mmHg 94%
    05:00 +13°C° 0 mm 1 mps 609 mmHg 94%
    06:00 +16°C° 0 mm 1 mps 610 mmHg 85%
    07:00 +19°C° 0 mm 1 mps 611 mmHg 76%
    08:00 +19°C° 0 mm 0 mps 612 mmHg 68%
    09:00 +22°C° 0.1 mm 1 mps 612 mmHg 65%
    10:00 +23°C° 0.1 mm 2 mps 612 mmHg 62%
    11:00 +24°C° 0.1 mm 2 mps 612 mmHg 58%
    12:00 +24°C° 0.5 mm 2 mps 611 mmHg 60%
    13:00 +22°C° 0.5 mm 3 mps 611 mmHg 62%
    14:00 +22°C° 0.5 mm 3 mps 610 mmHg 63%
    15:00 +21°C° 0.3 mm 2 mps 610 mmHg 68%
    16:00 +20°C° 0.3 mm 2 mps 610 mmHg 72%
    17:00 +20°C° 0.3 mm 2 mps 609 mmHg 77%
    18:00 +19°C° 0.3 mm 1 mps 609 mmHg 83%
    19:00 +18°C° 0.3 mm 1 mps 609 mmHg 89%
    20:00 +15°C° 0.3 mm 1 mps 609 mmHg 95%
    21:00 +14°C° 0 mm 0 mps 609 mmHg 95%
    22:00 +14°C° 0 mm 0 mps 609 mmHg 95%
    23:00 +14°C° 0 mm 0 mps 609 mmHg 95%

    Day after tomorrow, 4 June, Thursday

    Time Temperature Precipitation Wind Pressure Humidity
    00:00 +13°C° 0 mm 0 mps 609 mmHg 95%
    01:00 +14°C° 0 mm 1 mps 608 mmHg 95%
    02:00 +14°C° 0 mm 1 mps 608 mmHg 95%
    03:00 +14°C° 0 mm 1 mps 608 mmHg 95%
    04:00 +14°C° 0 mm 1 mps 608 mmHg 94%
    05:00 +13°C° 0 mm 1 mps 607 mmHg 94%
    06:00 +16°C° 0 mm 1 mps 609 mmHg 85%
    07:00 +19°C° 0 mm 1 mps 610 mmHg 75%
    08:00 +22°C° 0 mm 1 mps 611 mmHg 66%
    09:00 +23°C° 0 mm 1 mps 611 mmHg 62%
    10:00 +24°C° 0 mm 2 mps 611 mmHg 57%
    11:00 +25°C° 0 mm 3 mps 611 mmHg 53%
    12:00 +24°C° 0.2 mm 3 mps 611 mmHg 55%
    13:00 +24°C° 0.2 mm 3 mps 610 mmHg 57%
    14:00 +24°C° 0.2 mm 3 mps 610 mmHg 59%
    15:00 +22°C° 0.3 mm 3 mps 609 mmHg 65%
    16:00 +21°C° 0.3 mm 2 mps 609 mmHg 70%
    17:00 +20°C° 0.3 mm 2 mps 608 mmHg 76%
    18:00 +18°C° 0.2 mm 2 mps 609 mmHg 82%
    19:00 +18°C° 0.2 mm 1 mps 609 mmHg 89%
    20:00 +15°C° 0.2 mm 1 mps 609 mmHg 95%
    21:00 +14°C° 0.1 mm 0 mps 609 mmHg 95%
    22:00 +14°C° 0.1 mm 0 mps 609 mmHg 95%
    23:00 +13°C° 0.1 mm 0 mps 609 mmHg 95%

    5 June, Friday

    Time Temperature Precipitation Wind Pressure Humidity
    00:00 +13°C° 0 mm 0 mps 608 mmHg 95%
    01:00 +13°C° 0 mm 0 mps 608 mmHg 94%
    02:00 +14°C° 0 mm 1 mps 608 mmHg 94%
    03:00 +14°C° 0 mm 1 mps 608 mmHg 94%
    04:00 +14°C° 0 mm 1 mps 608 mmHg 94%
    05:00 +13°C° 0 mm 1 mps 608 mmHg 94%
    06:00 +15°C° 0 mm 1 mps 609 mmHg 85%
    07:00 +19°C° 0 mm 1 mps 610 mmHg 77%
    08:00 +21°C° 0 mm 1 mps 611 mmHg 69%
    09:00 +22°C° 0.1 mm 1 mps 611 mmHg 66%
    10:00 +21°C° 0.1 mm 2 mps 611 mmHg 63%
    11:00 +23°C° 0.1 mm 2 mps 610 mmHg 60%
    12:00 +23°C° 0.5 mm 2 mps 610 mmHg 62%
    13:00 +22°C° 0.5 mm 3 mps 610 mmHg 63%
    14:00 +22°C° 0.5 mm 3 mps 609 mmHg 65%
    15:00 +21°C° 0.6 mm 2 mps 609 mmHg 70%
    16:00 +20°C° 0.6 mm 2 mps 609 mmHg 76%
    17:00 +19°C° 0.6 mm 2 mps 608 mmHg 81%
    18:00 +19°C° 0.3 mm 1 mps 609 mmHg 85%
    19:00 +16°C° 0.3 mm 1 mps 609 mmHg 90%
    20:00 +15°C° 0.3 mm 1 mps 609 mmHg 94%
    21:00 +15°C° 0 mm 1 mps 609 mmHg 94%
    22:00 +14°C° 0 mm 1 mps 608 mmHg 94%
    23:00 +14°C° 0 mm 1 mps 608 mmHg 94%

    6 June, Saturday

    Time Temperature Precipitation Wind Pressure Humidity
    00:00 +14°C° 0 mm 1 mps 608 mmHg 94%
    01:00 +14°C° 0 mm 1 mps 607 mmHg 94%
    02:00 +13°C° 0 mm 1 mps 607 mmHg 93%
    03:00 +13°C° 0 mm 1 mps 607 mmHg 93%
    04:00 +13°C° 0 mm 1 mps 607 mmHg 93%
    05:00 +13°C° 0 mm 1 mps 607 mmHg 92%
    06:00 +15°C° 0 mm 1 mps 608 mmHg 83%
    07:00 +19°C° 0 mm 1 mps 610 mmHg 74%
    08:00 +21°C° 0 mm 1 mps 611 mmHg 64%
    09:00 +23°C° 0.1 mm 1 mps 611 mmHg 60%
    10:00 +24°C° 0.1 mm 2 mps 611 mmHg 55%
    11:00 +25°C° 0.1 mm 2 mps 611 mmHg 50%
    12:00 +24°C° 0.1 mm 3 mps 610 mmHg 52%
    13:00 +24°C° 0.1 mm 3 mps 610 mmHg 55%
    14:00 +24°C° 0.1 mm 3 mps 609 mmHg 57%
    15:00 +22°C° 0.1 mm 3 mps 608 mmHg 61%
    16:00 +21°C° 0.1 mm 2 mps 608 mmHg 65%
    17:00 +21°C° 0.1 mm 2 mps 608 mmHg 70%
    18:00 +20°C° 0 mm 1 mps 608 mmHg 78%
    19:00 +18°C° 0 mm 1 mps 608 mmHg 86%
    20:00 +14°C° 0 mm 0 mps 608 mmHg 94%
    21:00 +15°C° 0 mm 1 mps 608 mmHg 93%
    22:00 +15°C° 0 mm 1 mps 608 mmHg 93%
    23:00 +15°C° 0 mm 1 mps 608 mmHg 93%

    7 June, Sunday

    Time Temperature Precipitation Wind Pressure Humidity
    00:00 +15°C° 0 mm 1 mps 607 mmHg 92%
    01:00 +14°C° 0 mm 1 mps 607 mmHg 91%
    02:00 +14°C° 0 mm 1 mps 606 mmHg 90%
    03:00 +14°C° 0 mm 1 mps 606 mmHg 89%
    04:00 +14°C° 0 mm 1 mps 606 mmHg 88%
    05:00 +14°C° 0 mm 1 mps 606 mmHg 87%
    06:00 +16°C° 0 mm 1 mps 607 mmHg 75%
    07:00 +20°C° 0 mm 1 mps 609 mmHg 63%
    08:00 +21°C° 0 mm 0 mps 610 mmHg 50%
    09:00 +24°C° 0 mm 1 mps 610 mmHg 47%
    10:00 +26°C° 0 mm 2 mps 610 mmHg 43%
    11:00 +27°C° 0 mm 2 mps 610 mmHg 40%
    12:00 +27°C° 0 mm 2 mps 610 mmHg 43%
    13:00 +27°C° 0 mm 3 mps 609 mmHg 46%
    14:00 +27°C° 0 mm 3 mps 608 mmHg 49%
    15:00 +26°C° 0 mm 3 mps 608 mmHg 55%
    16:00 +24°C° 0 mm 2 mps 607 mmHg 62%
    17:00 +23°C° 0 mm 2 mps 607 mmHg 69%
    18:00 +20°C° 0.1 mm 2 mps 607 mmHg 78%
    19:00 +19°C° 0.1 mm 1 mps 607 mmHg 86%
    20:00 +18°C° 0.1 mm 1 mps 606 mmHg 95%
    21:00 +16°C° 0 mm 1 mps 607 mmHg 94%
    22:00 +16°C° 0 mm 1 mps 607 mmHg 93%
    23:00 +16°C° 0 mm 1 mps 607 mmHg 92%
    Show more